Hourly Data Report for June 19, 2019

All times are specified in Local Standard Time (LST). Add 1 hour to adjust for Daylight Saving Time where and when it is observed.

KELOWNA UBCO
BRITISH COLUMBIA
Current Station Operator: ECCC - MSC

49°56'26.700" N
119°24'00.760" W
456.00 m
1123996
71644
VKU

Download Data

Hourly Data (June 2019)
Hourly Data Report for June 19, 2019
TIME Temp Definition
°C
Dew Point Definition
°C
Rel Hum Definition
%
Wind Dir Definition
10's deg

Wind Spd Definition
km/h
Visibility Definition
km
Stn Press Definition
kPa
Hmdx Definition


Wind Chill Definition


Weather Definition


00:00 16.6 0.7 34       96.07     LegendNANA
01:00 15.8 2.0 39       96.07     LegendNANA
02:00 15.5 3.0 43       96.05     LegendNANA
03:00 15.6 2.5 41       96.08     LegendNANA
04:00 13.4 5.2 58       96.11     LegendNANA
05:00 10.8 8.3 84       96.22     LegendNANA
06:00 11.6 8.0 78       96.27     LegendNANA
07:00 11.4 6.7 73       96.30     LegendNANA
08:00 12.1 4.5 60       96.31     LegendNANA
09:00 13.5 4.0 53       96.31     LegendNANA
10:00 15.3 5.0 50       96.29     LegendNANA
11:00 14.1 3.3 48       96.30     LegendNANA
12:00 15.9 2.3 40       96.24     LegendNANA
13:00 12.1 5.8 66       96.27     LegendNANA
14:00 12.9 6.7 66       96.21     LegendNANA
15:00 10.7 7.5 81       96.26     LegendNANA
16:00 12.1 7.1 71       96.17     LegendNANA
17:00 12.9 5.6 61       96.19     LegendNANA
18:00 11.9 7.3 73       96.17     LegendNANA
19:00 12.3 4.7 60       96.16     LegendNANA
20:00 12.3 5.2 62       96.14     LegendNANA
21:00 11.5 5.8 68       96.11     LegendNANA
22:00 10.6 5.6 71       96.10     LegendNANA
23:00 11.1 5.2 67       96.09     LegendNANA

Notes on Data Quality.

Legend

  • E = Estimated
  • M = Missing
  • NA = Not Available*
  • [empty] = Indicates an unobserved value
Date modified: